QPF
0.03 0.03 0.04 0.03 0.03 0.03 0.03 0.04 0.03 0.04 0.05 0.05 0.02 0.01 0.02 0.03 0.04 0.05 0.05 0.04 0.04 0.04 0.04 0.04 0.04 0.04 0.03 0.04 0.04 0.05 0.04 0.03 0.04 0.06 0.06 0.06 0.05 0.06 0.07 0.07 0.05 0.05 0.05
0.01 0.02 0.03 0.03 0.02 0.02 0.02 0.03 0.02 0.02 0.04 0.04 0.03 0.02 0.02 0.03 0.04 0.04 0.04 0.03 0.04 0.03 0.03 0.03 0.04 0.04 0.03 0.03 0.03 0.04 0.04 0.03 0.05 0.07 0.08 0.06 0.05 0.06 0.07 0.07 0.05 0.04 0.05
0.00 0.01 0.01 0.01 0.01 0.01 0.01 0.02 0.01 0.01 0.03 0.04 0.03 0.02 0.03 0.03 0.04 0.04 0.03 0.04 0.03 0.03 0.03 0.03 0.05 0.04 0.03 0.03 0.03 0.04 0.05 0.06 0.05 0.06 0.06 0.03 0.02 0.05 0.07 0.06 0.04 0.03 0.05
0.00 0.00 0.00 0.01 0.01 0.01 0.01 0.01 0.02 0.02 0.02 0.03 0.03 0.02 0.03 0.04 0.04 0.04 0.03 0.03 0.02 0.03 0.03 0.04 0.04 0.03 0.03 0.03 0.04 0.04 0.05 0.07 0.05 0.05 0.05 0.03 0.02 0.03 0.06 0.06 0.05 0.04 0.05
0.00 0.00 0.00 0.00 0.00 0.01 0.01 0.01 0.02 0.01 0.02 0.03 0.03 0.02 0.03 0.04 0.04 0.03 0.02 0.02 0.02 0.03 0.03 0.04 0.03 0.02 0.03 0.03 0.04 0.04 0.05 0.05 0.03 0.02 0.03 0.05 0.04 0.04 0.05 0.05 0.06 0.05 0.06
0.00 0.00 0.00 0.00 0.00 0.00 0.00 0.01 0.01 0.01 0.01 0.02 0.03 0.03 0.04 0.04 0.03 0.02 0.02 0.02 0.02 0.02 0.03 0.03 0.02 0.03 0.04 0.04 0.04 0.05 0.06 0.02 0.01 0.01 0.03 0.04 0.04 0.05 0.04 0.03 0.04 0.05 0.05
0.00 0.00 0.00 0.00 0.00 0.00 0.00 0.01 0.01 0.01 0.01 0.01 0.02 0.03 0.05 0.05 0.03 0.03 0.03 0.03 0.02 0.02 0.03 0.03 0.02 0.03 0.03 0.03 0.04 0.04 0.04 0.03 0.02 0.02 0.04 0.05 0.04 0.04 0.04 0.04 0.04 0.06 0.06
0.00 0.00 0.00 0.00 0.00 0.00 0.00 0.00 0.01 0.01 0.01 0.01 0.02 0.03 0.06 0.06 0.05 0.06 0.04 0.03 0.02 0.03 0.03 0.02 0.02 0.04 0.04 0.03 0.04 0.03 0.03 0.02 0.01 0.02 0.04 0.04 0.03 0.04 0.04 0.04 0.06 0.07 0.05
0.00 0.00 0.00 0.00 0.00 0.01 0.01 0.01 0.01 0.01 0.01 0.01 0.01 0.03 0.08 0.11 0.10 0.09 0.06 0.03 0.03 0.03 0.03 0.02 0.02 0.03 0.03 0.03 0.04 0.03 0.02 0.02 0.01 0.03 0.03 0.03 0.03 0.04 0.04 0.04 0.07 0.07 0.04
0.01 0.00 0.01 0.01 0.01 0.01 0.01 0.01 0.01 0.01 0.01 0.01 0.01 0.03 0.08 0.09 0.08 0.07 0.05 0.04 0.04 0.04 0.04 0.04 0.03 0.04 0.03 0.03 0.04 0.05 0.04 0.03 0.02 0.03 0.04 0.04 0.04 0.03 0.04 0.04 0.04 0.03 0.03
0.01 0.01 0.01 0.01 0.01 0.01 0.01 0.01 0.02 0.02 0.02 0.02 0.02 0.03 0.04 0.06 0.05 0.04 0.04 0.04 0.03 0.03 0.04 0.05 0.05 0.04 0.03 0.04 0.05 0.05 0.04 0.04 0.04 0.05 0.05 0.04 0.04 0.03 0.04 0.03 0.03 0.03 0.03
0.01 0.02 0.02 0.01 0.01 0.01 0.01 0.02 0.04 0.03 0.03 0.02 0.03 0.03 0.03 0.04 0.04 0.03 0.03 0.03 0.03 0.03 0.04 0.06 0.05 0.03 0.03 0.04 0.04 0.03 0.03 0.02 0.02 0.03 0.03 0.03 0.04 0.03 0.03 0.03 0.04 0.04 0.03
0.02 0.03 0.03 0.03 0.02 0.02 0.01 0.02 0.03 0.03 0.03 0.03 0.02 0.02 0.02 0.01 0.02 0.02 0.03 0.03 0.02 0.03 0.03 0.03 0.03 0.03 0.03 0.05 0.04 0.02 0.02 0.03 0.03 0.02 0.03 0.02 0.03 0.03 0.02 0.03 0.03 0.04 0.04
0.02 0.03 0.04 0.04 0.03 0.03 0.02 0.02 0.02 0.02 0.02 0.01 0.02 0.02 0.01 0.01 0.01 0.02 0.03 0.02 0.01 0.02 0.04 0.02 0.03 0.03 0.03 0.02 0.01 0.01 0.01 0.03 0.03 0.02 0.03 0.02 0.03 0.03 0.03 0.03 0.03 0.03 0.04
0.04 0.05 0.05 0.05 0.03 0.02 0.02 0.01 0.01 0.01 0.02 0.02 0.02 0.01 0.01 0.01 0.01 0.01 0.01 0.01 0.01 0.01 0.02 0.02 0.02 0.04 0.04 0.03 0.01 0.01 0.01 0.02 0.02 0.01 0.02 0.02 0.03 0.04 0.04 0.04 0.03 0.03 0.03
0.04 0.06 0.05 0.05 0.05 0.03 0.02 0.01 0.01 0.01 0.02 0.02 0.03 0.02 0.01 0.01 0.01 0.01 0.01 0.01 0.01 0.01 0.02 0.02 0.02 0.05 0.05 0.04 0.02 0.01 0.01 0.02 0.02 0.01 0.02 0.02 0.01 0.02 0.03 0.03 0.02 0.03 0.02
0.02 0.04 0.04 0.06 0.09 0.06 0.03 0.01 0.01 0.01 0.01 0.01 0.02 0.03 0.03 0.02 0.02 0.02 0.02 0.02 0.02 0.02 0.02 0.03 0.03 0.05 0.04 0.03 0.03 0.03 0.03 0.04 0.03 0.03 0.04 0.04 0.03 0.02 0.01 0.01 0.02 0.02 0.02
0.04 0.03 0.02 0.03 0.07 0.08 0.04 0.02 0.01 0.01 0.01 0.01 0.01 0.02 0.04 0.03 0.04 0.04 0.04 0.03 0.03 0.03 0.03 0.04 0.04 0.05 0.05 0.06 0.06 0.06 0.05 0.05 0.03 0.03 0.02 0.03 0.05 0.04 0.03 0.02 0.02 0.02 0.02
0.06 0.04 0.02 0.01 0.04 0.06 0.04 0.02 0.02 0.02 0.02 0.01 0.02 0.02 0.03 0.03 0.03 0.04 0.06 0.05 0.03 0.03 0.04 0.03 0.03 0.05 0.07 0.10 0.08 0.07 0.06 0.05 0.04 0.03 0.02 0.03 0.04 0.04 0.05 0.03 0.02 0.02 0.02
0.07 0.05 0.03 0.02 0.02 0.03 0.03 0.03 0.03 0.04 0.03 0.02 0.03 0.04 0.05 0.05 0.04 0.06 0.06 0.05 0.03 0.04 0.06 0.07 0.07 0.06 0.07 0.10 0.05 0.05 0.05 0.03 0.03 0.03 0.02 0.03 0.04 0.02 0.03 0.04 0.06 0.04 0.03
0.07 0.05 0.02 0.02 0.02 0.02 0.03 0.02 0.03 0.04 0.05 0.03 0.03 0.05 0.06 0.06 0.06 0.08 0.07 0.07 0.05 0.07 0.07 0.07 0.08 0.08 0.07 0.08 0.10 0.08 0.05 0.03 0.03 0.03 0.03 0.04 0.03 0.02 0.03 0.05 0.07 0.07 0.04
0.05 0.04 0.03 0.03 0.03 0.02 0.02 0.03 0.03 0.05 0.06 0.06 0.07 0.07 0.07 0.07 0.06 0.06 0.07 0.07 0.07 0.08 0.08 0.07 0.08 0.09 0.08 0.07 0.09 0.09 0.07 0.06 0.03 0.02 0.02 0.03 0.01 0.02 0.02 0.03 0.05 0.07 0.06
0.03 0.04 0.03 0.03 0.03 0.03 0.03 0.04 0.05 0.06 0.06 0.08 0.08 0.09 0.08 0.08 0.07 0.07 0.06 0.07 0.08 0.07 0.08 0.09 0.08 0.08 0.09 0.07 0.07 0.08 0.08 0.07 0.06 0.03 0.02 0.02 0.02 0.03 0.03 0.02 0.02 0.05 0.05
0.03 0.04 0.04 0.03 0.04 0.04 0.04 0.05 0.06 0.08 0.08 0.08 0.08 0.10 0.11 0.11 0.09 0.08 0.08 0.09 0.08 0.06 0.07 0.06 0.06 0.07 0.09 0.09 0.07 0.05 0.04 0.03 0.05 0.04 0.02 0.01 0.02 0.04 0.04 0.02 0.01 0.03 0.05
0.04 0.04 0.04 0.04 0.04 0.07 0.08 0.09 0.11 0.09 0.09 0.12 0.13 0.13 0.14 0.11 0.08 0.08 0.09 0.09 0.08 0.06 0.07 0.07 0.06 0.08 0.07 0.07 0.06 0.05 0.04 0.03 0.02 0.03 0.04 0.03 0.02 0.02 0.02 0.02 0.02 0.02 0.03
0.05 0.04 0.04 0.04 0.04 0.05 0.09 0.10 0.11 0.12 0.14 0.16 0.20 0.16 0.16 0.15 0.11 0.09 0.08 0.08 0.09 0.08 0.08 0.08 0.08 0.08 0.08 0.07 0.06 0.04 0.03 0.02 0.01 0.03 0.03 0.04 0.05 0.03 0.02 0.02 0.02 0.01 0.01
MSLP
1011.11 1011.26 1011.56 1011.96 1012.40 1012.80 1013.11 1013.30 1013.40 1013.43 1013.45 1013.53 1013.69 1013.93 1014.23 1014.53 1014.78 1014.95 1015.01 1014.99 1014.92 1014.86 1014.85 1014.91 1015.05 1015.23 1015.43 1015.58 1015.67 1015.69 1015.67 1015.64 1015.67 1015.78 1015.99 1016.29 1016.66 1017.03 1017.38 1017.65 1017.84 1017.97 1018.04
1010.81 1011.12 1011.57 1012.11 1012.67 1013.15 1013.49 1013.69 1013.75 1013.73 1013.70 1013.74 1013.87 1014.11 1014.41 1014.74 1015.01 1015.20 1015.27 1015.26 1015.19 1015.13 1015.12 1015.20 1015.36 1015.56 1015.77 1015.94 1016.02 1016.03 1015.97 1015.91 1015.90 1015.98 1016.18 1016.49 1016.88 1017.29 1017.68 1018.00 1018.23 1018.37 1018.46
1010.54 1010.98 1011.56 1012.23 1012.89 1013.44 1013.84 1014.06 1014.11 1014.07 1014.02 1014.02 1014.12 1014.34 1014.63 1014.95 1015.23 1015.41 1015.49 1015.47 1015.42 1015.37 1015.40 1015.50 1015.70 1015.93 1016.16 1016.34 1016.41 1016.39 1016.30 1016.20 1016.15 1016.21 1016.39 1016.70 1017.10 1017.54 1017.96 1018.31 1018.57 1018.74 1018.84
1010.37 1010.89 1011.57 1012.33 1013.07 1013.70 1014.15 1014.40 1014.47 1014.44 1014.37 1014.36 1014.44 1014.63 1014.90 1015.19 1015.44 1015.62 1015.69 1015.68 1015.65 1015.64 1015.70 1015.86 1016.09 1016.36 1016.60 1016.77 1016.84 1016.79 1016.67 1016.53 1016.45 1016.48 1016.66 1016.96 1017.37 1017.81 1018.25 1018.61 1018.89 1019.08 1019.20
1010.33 1010.90 1011.62 1012.43 1013.22 1013.90 1014.39 1014.69 1014.80 1014.79 1014.74 1014.73 1014.80 1014.97 1015.21 1015.47 1015.69 1015.85 1015.92 1015.93 1015.92 1015.95 1016.06 1016.26 1016.53 1016.82 1017.08 1017.24 1017.28 1017.21 1017.06 1016.90 1016.80 1016.83 1016.99 1017.30 1017.70 1018.15 1018.57 1018.94 1019.21 1019.40 1019.52
1010.43 1011.00 1011.73 1012.54 1013.34 1014.04 1014.57 1014.90 1015.06 1015.09 1015.08 1015.09 1015.17 1015.33 1015.54 1015.77 1015.98 1016.12 1016.19 1016.22 1016.25 1016.32 1016.47 1016.71 1017.00 1017.30 1017.55 1017.69 1017.71 1017.62 1017.45 1017.29 1017.19 1017.22 1017.39 1017.70 1018.10 1018.54 1018.95 1019.29 1019.54 1019.71 1019.83
1010.64 1011.19 1011.88 1012.66 1013.43 1014.12 1014.66 1015.02 1015.22 1015.30 1015.34 1015.39 1015.49 1015.65 1015.87 1016.09 1016.28 1016.41 1016.50 1016.55 1016.61 1016.72 1016.90 1017.16 1017.45 1017.74 1017.97 1018.08 1018.07 1017.96 1017.79 1017.64 1017.57 1017.62 1017.82 1018.14 1018.55 1018.97 1019.35 1019.65 1019.87 1020.01 1020.10
1010.92 1011.41 1012.04 1012.76 1013.49 1014.14 1014.67 1015.04 1015.28 1015.41 1015.50 1015.59 1015.73 1015.92 1016.14 1016.37 1016.56 1016.71 1016.81 1016.88 1016.97 1017.11 1017.31 1017.56 1017.84 1018.10 1018.28 1018.36 1018.32 1018.20 1018.05 1017.92 1017.89 1017.99 1018.23 1018.59 1019.00 1019.41 1019.76 1020.03 1020.19 1020.29 1020.35
1011.19 1011.63 1012.20 1012.84 1013.50 1014.11 1014.61 1014.98 1015.24 1015.41 1015.55 1015.70 1015.88 1016.10 1016.35 1016.59 1016.80 1016.97 1017.08 1017.18 1017.29 1017.44 1017.63 1017.87 1018.11 1018.32 1018.46 1018.50 1018.44 1018.32 1018.19 1018.11 1018.14 1018.30 1018.60 1018.99 1019.42 1019.83 1020.16 1020.38 1020.51 1020.56 1020.59
1011.42 1011.82 1012.33 1012.91 1013.50 1014.05 1014.51 1014.87 1015.14 1015.34 1015.52 1015.71 1015.94 1016.20 1016.47 1016.74 1016.97 1017.15 1017.29 1017.41 1017.53 1017.67 1017.85 1018.05 1018.25 1018.42 1018.50 1018.51 1018.44 1018.33 1018.23 1018.21 1018.30 1018.54 1018.90 1019.33 1019.79 1020.20 1020.52 1020.72 1020.81 1020.83 1020.82
1011.60 1011.98 1012.45 1012.97 1013.50 1013.99 1014.41 1014.75 1015.01 1015.23 1015.44 1015.66 1015.93 1016.22 1016.53 1016.82 1017.07 1017.27 1017.43 1017.55 1017.67 1017.81 1017.96 1018.13 1018.29 1018.40 1018.46 1018.44 1018.37 1018.28 1018.23 1018.26 1018.42 1018.72 1019.13 1019.61 1020.10 1020.52 1020.84 1021.04 1021.11 1021.10 1021.07
1011.72 1012.11 1012.56 1013.04 1013.52 1013.97 1014.34 1014.65 1014.90 1015.12 1015.35 1015.60 1015.88 1016.20 1016.53 1016.84 1017.11 1017.32 1017.49 1017.62 1017.74 1017.86 1017.99 1018.12 1018.25 1018.33 1018.37 1018.35 1018.29 1018.24 1018.23 1018.32 1018.53 1018.88 1019.33 1019.84 1020.35 1020.78 1021.11 1021.31 1021.39 1021.39 1021.35
1011.82 1012.23 1012.68 1013.14 1013.59 1013.99 1014.33 1014.60 1014.84 1015.05 1015.28 1015.54 1015.84 1016.17 1016.51 1016.83 1017.12 1017.34 1017.52 1017.65 1017.76 1017.86 1017.97 1018.08 1018.19 1018.26 1018.30 1018.30 1018.27 1018.26 1018.29 1018.42 1018.67 1019.04 1019.51 1020.02 1020.54 1020.98 1021.33 1021.54 1021.64 1021.66 1021.63
1011.91 1012.35 1012.80 1013.26 1013.68 1014.05 1014.36 1014.61 1014.82 1015.03 1015.25 1015.51 1015.81 1016.15 1016.50 1016.83 1017.12 1017.36 1017.53 1017.66 1017.77 1017.86 1017.96 1018.06 1018.16 1018.24 1018.30 1018.33 1018.34 1018.37 1018.44 1018.60 1018.85 1019.22 1019.67 1020.17 1020.67 1021.11 1021.46 1021.71 1021.84 1021.89 1021.90
1011.97 1012.45 1012.92 1013.37 1013.77 1014.12 1014.41 1014.64 1014.84 1015.03 1015.24 1015.50 1015.81 1016.15 1016.50 1016.84 1017.14 1017.39 1017.57 1017.70 1017.80 1017.89 1017.98 1018.08 1018.19 1018.29 1018.37 1018.44 1018.50 1018.57 1018.67 1018.83 1019.08 1019.41 1019.82 1020.27 1020.73 1021.15 1021.50 1021.77 1021.95 1022.05 1022.10
1012.00 1012.50 1012.98 1013.43 1013.82 1014.16 1014.44 1014.66 1014.84 1015.03 1015.24 1015.49 1015.80 1016.14 1016.50 1016.86 1017.17 1017.43 1017.63 1017.77 1017.87 1017.96 1018.05 1018.15 1018.27 1018.39 1018.51 1018.62 1018.73 1018.83 1018.95 1019.10 1019.31 1019.59 1019.93 1020.31 1020.70 1021.08 1021.43 1021.71 1021.92 1022.07 1022.18
1011.94 1012.45 1012.94 1013.39 1013.79 1014.12 1014.40 1014.62 1014.81 1014.99 1015.20 1015.45 1015.76 1016.11 1016.48 1016.85 1017.19 1017.47 1017.68 1017.84 1017.96 1018.05 1018.15 1018.26 1018.38 1018.53 1018.68 1018.83 1018.96 1019.09 1019.21 1019.35 1019.52 1019.72 1019.98 1020.27 1020.58 1020.91 1021.22 1021.50 1021.75 1021.95 1022.11
1011.78 1012.29 1012.78 1013.23 1013.63 1013.98 1014.26 1014.50 1014.70 1014.89 1015.10 1015.35 1015.66 1016.01 1016.40 1016.79 1017.15 1017.46 1017.71 1017.90 1018.03 1018.14 1018.24 1018.36 1018.49 1018.65 1018.82 1019.00 1019.16 1019.30 1019.43 1019.54 1019.66 1019.79 1019.96 1020.15 1020.38 1020.64 1020.91 1021.18 1021.44 1021.67 1021.88
1011.49 1011.99 1012.48 1012.94 1013.35 1013.72 1014.03 1014.29 1014.51 1014.71 1014.93 1015.18 1015.48 1015.84 1016.23 1016.64 1017.03 1017.37 1017.66 1017.88 1018.05 1018.18 1018.29 1018.41 1018.56 1018.73 1018.91 1019.10 1019.28 1019.44 1019.56 1019.66 1019.73 1019.80 1019.88 1019.99 1020.13 1020.31 1020.53 1020.77 1021.02 1021.28 1021.52
1011.08 1011.57 1012.06 1012.53 1012.97 1013.37 1013.71 1014.00 1014.25 1014.47 1014.68 1014.93 1015.22 1015.57 1015.96 1016.38 1016.79 1017.18 1017.51 1017.77 1017.98 1018.14 1018.27 1018.41 1018.55 1018.73 1018.92 1019.13 1019.32 1019.49 1019.61 1019.70 1019.74 1019.76 1019.77 1019.80 1019.86 1019.97 1020.13 1020.33 1020.56 1020.81 1021.07
1010.57 1011.06 1011.55 1012.04 1012.51 1012.95 1013.34 1013.67 1013.94 1014.17 1014.39 1014.62 1014.89 1015.22 1015.59 1016.01 1016.44 1016.85 1017.22 1017.54 1017.79 1017.99 1018.15 1018.30 1018.47 1018.65 1018.85 1019.07 1019.28 1019.46 1019.59 1019.68 1019.71 1019.69 1019.66 1019.63 1019.62 1019.66 1019.76 1019.90 1020.10 1020.34 1020.59
1010.01 1010.50 1011.00 1011.51 1012.02 1012.50 1012.94 1013.31 1013.61 1013.86 1014.07 1014.27 1014.51 1014.80 1015.14 1015.54 1015.97 1016.41 1016.81 1017.17 1017.47 1017.72 1017.92 1018.10 1018.29 1018.49 1018.71 1018.94 1019.16 1019.36 1019.52 1019.62 1019.65 1019.62 1019.57 1019.49 1019.44 1019.42 1019.45 1019.54 1019.70 1019.89 1020.13
1009.43 1009.91 1010.43 1010.97 1011.52 1012.05 1012.53 1012.94 1013.27 1013.52 1013.72 1013.90 1014.09 1014.33 1014.63 1015.00 1015.41 1015.85 1016.28 1016.68 1017.03 1017.32 1017.58 1017.80 1018.02 1018.24 1018.48 1018.73 1018.98 1019.21 1019.39 1019.51 1019.57 1019.55 1019.49 1019.40 1019.30 1019.24 1019.22 1019.26 1019.35 1019.51 1019.71
1008.87 1009.35 1009.87 1010.43 1011.01 1011.59 1012.11 1012.56 1012.91 1013.18 1013.36 1013.51 1013.66 1013.84 1014.09 1014.41 1014.79 1015.22 1015.66 1016.09 1016.48 1016.82 1017.12 1017.39 1017.64 1017.90 1018.17 1018.45 1018.73 1018.99 1019.20 1019.36 1019.44 1019.45 1019.40 1019.31 1019.20 1019.10 1019.04 1019.03 1019.08 1019.18 1019.34
1008.34 1008.82 1009.34 1009.91 1010.52 1011.11 1011.67 1012.15 1012.53 1012.80 1012.98 1013.10 1013.21 1013.34 1013.53 1013.79 1014.13 1014.54 1014.97 1015.41 1015.83 1016.21 1016.55 1016.87 1017.16 1017.45 1017.75 1018.06 1018.37 1018.67 1018.92 1019.12 1019.24 1019.28 1019.26 1019.18 1019.08 1018.97 1018.88 1018.83 1018.83 1018.89 1019.01
1007.86 1008.32 1008.84 1009.41 1010.02 1010.63 1011.21 1011.71 1012.11 1012.39 1012.57 1012.67 1012.74 1012.83 1012.96 1013.17 1013.46 1013.83 1014.25 1014.68 1015.11 1015.52 1015.89 1016.24 1016.56 1016.89 1017.22 1017.56 1017.90 1018.22 1018.52 1018.76 1018.93 1019.02 1019.04 1018.99 1018.90 1018.80 1018.70 1018.62 1018.59 1018.62 1018.70
Thickness
5801 5799 5789 5788 5787 5786 5785 5784 5782 5781 5780 5779 5778 5777 5776 5775 5774 5773 5772 5771 5771 5769 5768 5767 5765 5764 5763 5762 5760 5759 5758 5757 5755 5754 5752 5751 5749 5747 5746 5745 5744 5742 5738
5805 5798 5788 5787 5786 5784 5783 5782 5781 5779 5778 5777 5776 5774 5773 5773 5772 5771 5770 5769 5768 5767 5766 5765 5763 5762 5761 5759 5758 5757 5755 5754 5753 5752 5751 5749 5746 5745 5744 5743 5743 5740 5737
5805 5797 5789 5786 5784 5783 5781 5780 5779 5777 5776 5775 5773 5772 5771 5770 5770 5769 5768 5767 5766 5765 5764 5763 5762 5760 5759 5757 5756 5754 5753 5752 5751 5751 5751 5751 5745 5743 5742 5740 5739 5737 5735
5804 5797 5791 5785 5783 5782 5780 5778 5777 5776 5774 5772 5771 5770 5769 5768 5768 5767 5766 5765 5764 5763 5762 5761 5760 5758 5757 5755 5754 5752 5751 5750 5750 5751 5753 5751 5746 5741 5739 5738 5736 5735 5734
5803 5797 5789 5784 5782 5780 5778 5776 5775 5774 5772 5771 5770 5769 5767 5766 5766 5765 5764 5763 5762 5761 5760 5759 5757 5756 5755 5753 5752 5751 5749 5749 5750 5752 5750 5748 5744 5739 5738 5736 5735 5734 5732
5801 5797 5787 5782 5780 5778 5777 5775 5773 5772 5770 5769 5768 5767 5766 5765 5764 5763 5762 5761 5760 5759 5758 5757 5755 5754 5753 5751 5750 5749 5748 5749 5751 5751 5748 5746 5742 5737 5736 5735 5733 5732 5731
5802 5796 5787 5781 5778 5776 5775 5773 5772 5770 5768 5767 5766 5765 5764 5762 5762 5761 5760 5759 5757 5756 5755 5754 5753 5752 5751 5749 5748 5747 5747 5748 5752 5750 5747 5744 5739 5736 5734 5733 5732 5730 5729
5802 5796 5785 5779 5777 5775 5773 5771 5770 5768 5767 5766 5764 5763 5762 5761 5759 5758 5757 5756 5755 5754 5753 5752 5751 5750 5749 5747 5746 5746 5746 5748 5750 5748 5745 5741 5736 5734 5733 5731 5730 5728 5727
5801 5795 5787 5781 5776 5773 5771 5769 5768 5767 5765 5764 5762 5761 5760 5759 5757 5756 5755 5754 5753 5752 5751 5750 5749 5748 5747 5746 5745 5744 5745 5747 5750 5747 5744 5739 5734 5733 5731 5729 5728 5727 5725
5797 5793 5788 5783 5779 5775 5772 5768 5766 5764 5763 5762 5761 5760 5758 5757 5755 5754 5753 5752 5751 5750 5749 5748 5747 5747 5745 5744 5743 5743 5744 5746 5749 5746 5742 5737 5732 5731 5729 5728 5726 5725 5723
5791 5790 5788 5784 5779 5776 5774 5768 5765 5763 5761 5760 5760 5758 5757 5759 5757 5754 5752 5749 5749 5748 5747 5746 5746 5745 5744 5743 5742 5742 5744 5748 5747 5745 5740 5734 5731 5729 5728 5726 5725 5723 5722
5785 5786 5786 5783 5779 5777 5774 5768 5767 5765 5762 5762 5760 5759 5758 5757 5756 5755 5749 5748 5747 5746 5745 5745 5745 5744 5745 5745 5743 5743 5747 5747 5747 5743 5737 5732 5730 5728 5726 5725 5723 5722 5720
5786 5784 5784 5780 5778 5776 5773 5770 5768 5766 5762 5762 5759 5758 5757 5756 5755 5753 5751 5748 5747 5746 5747 5744 5746 5748 5748 5747 5747 5748 5747 5747 5746 5743 5735 5730 5728 5727 5725 5723 5722 5720 5719
5786 5783 5782 5778 5775 5774 5773 5770 5767 5766 5763 5762 5758 5757 5757 5757 5755 5754 5751 5751 5749 5748 5747 5748 5747 5746 5746 5746 5746 5746 5745 5745 5744 5741 5733 5729 5727 5726 5724 5722 5721 5720 5718
5785 5782 5780 5776 5773 5771 5769 5768 5768 5765 5764 5761 5758 5756 5756 5756 5754 5752 5750 5749 5750 5748 5747 5746 5746 5744 5744 5743 5744 5743 5743 5742 5741 5740 5732 5728 5726 5724 5723 5721 5720 5719 5717
5786 5782 5779 5775 5772 5769 5767 5765 5765 5764 5761 5761 5758 5755 5753 5754 5753 5751 5748 5747 5748 5747 5747 5746 5745 5743 5743 5743 5742 5741 5741 5740 5738 5737 5734 5729 5726 5724 5722 5721 5720 5718 5717
5788 5784 5778 5774 5771 5767 5766 5764 5764 5762 5760 5759 5757 5753 5751 5751 5750 5749 5749 5747 5746 5745 5743 5743 5743 5742 5742 5742 5741 5740 5740 5738 5737 5735 5734 5732 5729 5724 5722 5721 5720 5718 5717
5787 5782 5777 5775 5770 5766 5764 5762 5763 5761 5759 5757 5755 5753 5750 5749 5747 5747 5747 5746 5744 5743 5743 5742 5742 5742 5741 5741 5740 5740 5739 5736 5735 5734 5734 5732 5731 5730 5724 5721 5720 5718 5717
5786 5781 5776 5774 5770 5766 5763 5760 5760 5758 5757 5756 5754 5752 5750 5748 5746 5746 5745 5744 5742 5743 5742 5743 5742 5741 5739 5738 5739 5737 5738 5737 5735 5735 5734 5733 5731 5729 5728 5723 5720 5719 5717
5785 5780 5775 5772 5769 5765 5762 5759 5758 5756 5755 5754 5753 5751 5749 5747 5745 5744 5743 5742 5742 5742 5740 5740 5738 5737 5737 5737 5740 5738 5737 5737 5736 5735 5735 5734 5731 5730 5729 5727 5723 5721 5719
5783 5778 5774 5771 5768 5764 5761 5758 5756 5754 5753 5752 5752 5750 5747 5746 5744 5743 5744 5741 5741 5740 5739 5738 5736 5735 5735 5736 5735 5733 5735 5737 5736 5736 5735 5735 5733 5731 5730 5728 5727 5726 5722
5784 5780 5776 5772 5770 5766 5763 5760 5758 5756 5753 5752 5751 5748 5747 5745 5743 5743 5742 5741 5740 5738 5737 5736 5735 5734 5735 5735 5733 5730 5728 5730 5733 5739 5737 5735 5735 5734 5732 5730 5728 5726 5725
5786 5782 5778 5774 5771 5767 5764 5760 5756 5752 5750 5749 5747 5747 5746 5744 5742 5742 5741 5741 5739 5738 5737 5735 5735 5733 5732 5734 5736 5733 5727 5725 5732 5737 5738 5738 5736 5735 5735 5734 5731 5728 5726
5789 5784 5778 5774 5770 5766 5763 5759 5756 5752 5749 5749 5747 5747 5745 5744 5742 5741 5740 5739 5739 5739 5738 5736 5737 5736 5733 5732 5734 5735 5736 5737 5730 5730 5735 5739 5737 5735 5736 5737 5735 5731 5728
5790 5784 5779 5773 5768 5765 5762 5758 5754 5753 5751 5750 5747 5744 5743 5742 5741 5741 5740 5739 5738 5739 5738 5738 5737 5735 5735 5734 5734 5734 5733 5734 5735 5732 5730 5735 5738 5740 5739 5737 5736 5734 5731
5790 5784 5779 5772 5767 5765 5762 5758 5754 5752 5750 5747 5744 5742 5741 5741 5741 5741 5740 5739 5738 5739 5738 5737 5736 5735 5735 5735 5735 5736 5735 5734 5733 5734 5732 5731 5734 5739 5740 5739 5737 5736 5734